Watts Bar Observed Data For Previous 48 Hours

Caption
Day and Hour Reservoir Elevation (behind dam)* Tailwater Elevation (below dam)* Average Hourly Discharge*
2/21/2018 2 AM EST 738.35 686.14 94,894
2/21/2018 3 AM EST 738.33 686.12 94,874
2/21/2018 4 AM EST 738.31 686.12 94,860
2/21/2018 5 AM EST 738.26 686.13 94,852
2/21/2018 6 AM EST 738.22 686.11 94,795
2/21/2018 7 AM EST 738.20 686.11 94,766
2/21/2018 8 AM EST 738.17 686.11 94,744
2/21/2018 9 AM EST 738.12 686.10 94,634
2/21/2018 10 AM EST 738.09 686.08 94,679
2/21/2018 11 AM EST 738.06 686.05 94,649
2/21/2018 12 PM EST 738.04 686.10 94,620
2/21/2018 1 PM EST 738.00 686.05 94,605
2/21/2018 2 PM EST 737.97 686.09 94,559
2/21/2018 3 PM EST 737.94 686.06 94,531
2/21/2018 4 PM EST 737.91 686.04 94,484
2/21/2018 5 PM EST 737.89 686.06 94,457
2/21/2018 6 PM EST 737.86 686.05 94,438
2/21/2018 7 PM EST 737.84 686.04 94,396
2/21/2018 8 PM EST 737.83 686.03 94,376
2/21/2018 9 PM EST 737.80 685.98 94,371
2/21/2018 10 PM EST 737.76 685.96 94,322
2/21/2018 11 PM EST 737.74 685.94 94,289
2/22/2018 12 AM EST 737.72 685.95 94,265
2/22/2018 1 AM EST 737.67 685.92 94,218
2/22/2018 2 AM EST 737.65 685.93 94,166
2/22/2018 3 AM EST 737.62 685.94 94,149
2/22/2018 4 AM EST 737.59 685.92 94,114
2/22/2018 5 AM EST 737.55 685.89 94,121
2/22/2018 6 AM EST 737.52 685.92 94,086
2/22/2018 7 AM EST 737.50 685.89 94,049
2/22/2018 8 AM EST 737.46 685.89 94,013
2/22/2018 9 AM EST 737.44 685.89 93,969
2/22/2018 10 AM EST 737.42 685.90 93,954
2/22/2018 11 AM EST 737.39 685.84 93,866
2/22/2018 12 PM EST 737.35 685.85 93,796
2/22/2018 1 PM EST 737.32 685.85 93,764
2/22/2018 2 PM EST 737.29 685.81 93,791
2/22/2018 3 PM EST 737.26 685.84 93,775
2/22/2018 4 PM EST 737.25 685.82 93,749
2/22/2018 5 PM EST 737.23 685.82 93,720
2/22/2018 6 PM EST 737.21 685.83 93,700
2/22/2018 7 PM EST 737.21 685.84 93,678
2/22/2018 8 PM EST 737.19 685.80 93,661
2/22/2018 9 PM EST 737.16 685.84 93,655
2/22/2018 10 PM EST 737.13 685.80 93,618
2/22/2018 11 PM EST 737.11 685.80 93,601
2/23/2018 12 AM EST 737.08 685.79 93,565
2/23/2018 1 AM EST 737.07 685.77 93,555
2/23/2018 2 AM EST 737.05 685.78 93,526
2/23/2018 3 AM EST 737.03 685.76 93,501
2/23/2018 4 AM EST 737.01 685.76 93,466
2/23/2018 5 AM EST 737.00 685.74 93,418
2/23/2018 6 AM EST 736.97 685.75 93,404
2/23/2018 7 AM EST 736.94 685.75 93,379
2/23/2018 8 AM EST 736.93 685.75 93,396
2/23/2018 9 AM EST 736.91 685.71 93,363
2/23/2018 10 AM EST 736.89 685.73 93,356
2/23/2018 11 AM EST 736.85 685.75 93,326

Elevations are in feet above sea level. Discharges are in cubic feet per second and are reported at the end of the hour.